EW7694 Weather Reports


Display with metric or nautical units.
time (UTC)temp
F
wind
direction
speed
MPH
gust
MPH
rain 1hr
in
rain 24hr
in
rain mn
in
humidity
%
barometer
mb
20181021011017 52 0.0 0.0 0.00 0.00 0.00 85 1018.2
20181021010517 52 0.0 0.0 0.00 0.00 0.00 84 1018.3
20181021010017 53 0.0 0.0 0.00 0.00 0.00 84 1018.3
20181021005517 53 0.0 0.0 0.00 0.00 0.00 83 1018.3
20181021005017 53 0.0 0.0 0.00 0.00 0.00 82 1018.4
20181021004517 54 0.0 0.0 0.00 0.00 0.00 82 1018.4
20181021004017 54 0.0 2.0 0.00 0.00 0.00 81 1018.5
20181021003517 55 259 0.0 2.0 0.00 0.00 0.00 81 1018.5
20181021003017 55 259 0.0 2.0 0.00 0.00 0.00 81 1018.5
20181021002517 55 259 0.0 2.0 0.00 0.00 0.00 80 1018.5
20181021002017 55 259 0.0 3.0 0.00 0.00 0.00 80 1018.6
20181021001517 55 255 0.0 3.0 0.00 0.00 0.00 79 1018.6
20181021001017 56 241 0.0 3.0 0.00 0.00 0.00 79 1018.6
20181021000517 56 218 0.0 2.0 0.00 0.00 0.00 79 1018.7
20181021000017 56 195 0.0 2.0 0.00 0.00 0.00 79 1018.7
20181020235517 56 210 0.0 3.0 0.00 0.00 0.00 78 1018.8
20181020235017 56 189 0.0 3.0 0.00 0.00 0.00 78 1018.8
20181020234517 57 155 0.0 2.0 0.00 0.00 0.00 76 1018.9
20181020234017 58 209 0.0 3.0 0.00 0.00 0.00 76 1018.9
20181020233517 58 221 0.0 3.0 0.00 0.00 0.00 76 1018.9
20181020233017 58 148 0.0 3.0 0.00 0.00 0.00 76 1019.0
20181020232517 58 184 0.0 3.0 0.00 0.00 0.00 77 1019.1
20181020232017 58 166 0.0 3.0 0.00 0.00 0.00 77 1019.1
20181020231517 58 166 0.0 4.0 0.00 0.00 0.00 77 1019.2
20181020231017 58 155 0.0 4.0 0.00 0.00 0.00 77 1019.3
20181020230516 58 149 1.0 4.0 0.00 0.00 0.00 77 1019.3
20181020230017 58 167 0.0 4.0 0.00 0.00 0.00 78 1019.3
20181020225523 57 163 0.0 3.0 0.00 0.00 0.00 77 1019.4
20181020225017 57 141 1.0 4.0 0.00 0.00 0.00 77 1019.5
20181020224517 58 148 1.0 4.0 0.00 0.00 0.00 77 1019.6
20181020224017 58 151 0.0 4.0 0.00 0.00 0.00 77 1019.6
20181020223517 58 228 0.0 3.0 0.00 0.00 0.00 77 1019.7
20181020223017 57 146 0.0 3.0 0.00 0.00 0.00 78 1019.7
20181020222517 57 176 0.0 3.0 0.00 0.00 0.00 78 1019.8
20181020222017 57 156 0.0 3.0 0.00 0.00 0.00 79 1019.8
20181020221517 57 155 0.0 3.0 0.00 0.00 0.00 79 1020.0
20181020221017 57 145 1.0 3.0 0.00 0.00 0.00 79 1020.0
20181020220517 56 135 0.0 5.0 0.00 0.00 0.00 80 1020.1
20181020220017 56 136 1.0 5.0 0.00 0.00 0.00 79 1020.1
20181020215517 56 133 1.0 5.0 0.00 0.00 0.00 80 1020.2
20181020215016 56 141 1.0 5.0 0.00 0.00 0.00 79 1020.3
20181020214517 56 166 0.0 3.0 0.00 0.00 0.00 81 1020.4
20181020214016 56 155 0.0 2.0 0.00 0.00 0.00 81 1020.4
20181020213516 55 174 0.0 3.0 0.00 0.00 0.00 82 1020.5
20181020213017 55 140 1.0 3.0 0.00 0.00 0.00 83 1020.6
20181020212517 55 188 0.0 3.0 0.00 0.00 0.00 84 1020.6
20181020212016 54 219 0.0 3.0 0.00 0.00 0.00 84 1020.7
20181020211516 54 128 0.0 4.0 0.00 0.00 0.00 85 1020.8
20181020211016 53 192 1.0 4.0 0.00 0.00 0.00 85 1021.0
20181020210516 53 210 0.0 3.0 0.00 0.00 0.00 86 1021.1
20181020210017 53 161 0.0 3.0 0.00 0.00 0.00 87 1021.1
20181020205517 53 156 0.0 3.0 0.00 0.00 0.00 87 1021.1
20181020205016 53 147 0.0 5.0 0.00 0.00 0.00 86 1021.2
20181020204516 53 134 1.0 5.0 0.00 0.00 0.00 86 1021.3
20181020204017 53 141 1.0 5.0 0.00 0.00 0.00 85 1021.4
20181020203516 53 137 1.0 5.0 0.00 0.00 0.00 85 1021.5
20181020203016 53 201 0.0 3.0 0.00 0.00 0.00 85 1021.6
20181020202517 53 205 0.0 3.0 0.00 0.00 0.00 85 1021.7
20181020202016 54 152 0.0 4.0 0.00 0.00 0.00 85 1021.7
20181020201516 53 194 1.0 4.0 0.00 0.00 0.00 86 1021.9
20181020201016 53 174 0.0 4.0 0.00 0.00 0.00 87 1022.0
20181020200516 52 147 1.0 5.0 0.00 0.00 0.00 89 1022.0
20181020200016 52 139 2.0 5.0 0.00 0.00 0.00 89 1022.2
20181020195516 52 135 1.0 6.0 0.00 0.00 0.00 89 1022.3
20181020195023 52 156 1.0 6.0 0.00 0.00 0.00 89 1022.4
20181020194516 52 144 1.0 5.0 0.00 0.00 0.00 89 1022.5
20181020194016 52 143 1.0 5.0 0.00 0.00 0.00 89 1022.6
20181020193516 51 144 1.0 5.0 0.00 0.00 0.00 89 1022.6
20181020193017 52 135 1.0 5.0 0.00 0.00 0.00 89 1022.7
20181020192516 52 133 1.0 5.0 0.00 0.00 0.00 89 1022.8
20181020192016 52 149 1.0 7.0 0.00 0.00 0.00 89 1022.8
20181020191517 52 132 2.0 9.0 0.00 0.00 0.00 89 1022.8
20181020191016 52 131 4.0 9.0 0.00 0.00 0.00 88 1022.9
20181020190517 52 130 2.0 7.0 0.00 0.00 0.00 88 1022.9
20181020190016 52 134 2.0 7.0 0.00 0.00 0.00 88 1022.8
20181020185516 52 139 2.0 6.0 0.00 0.00 0.00 88 1022.9
20181020185016 52 133 1.0 6.0 0.00 0.00 0.00 88 1022.9
20181020184516 52 141 1.0 7.0 0.00 0.00 0.00 87 1023.0
20181020184016 52 137 2.0 7.0 0.00 0.00 0.00 87 1023.0
20181020183516 52 142 2.0 8.0 0.00 0.00 0.00 87 1023.0
20181020183016 53 133 3.0 9.0 0.00 0.00 0.00 86 1023.0
20181020182516 53 137 3.0 9.0 0.00 0.00 0.00 85 1023.1
20181020182016 53 140 1.0 8.0 0.00 0.00 0.00 85 1023.1
20181020181516 53 138 1.0 4.0 0.00 0.00 0.00 86 1023.1
20181020181016 52 138 1.0 5.0 0.00 0.00 0.00 87 1023.1
20181020180517 52 140 2.0 5.0 0.00 0.00 0.00 87 1023.1
20181020180016 51 204 0.0 4.0 0.00 0.00 0.00 88 1023.1
20181020175516 51 259 1.0 4.0 0.00 0.00 0.00 88 1023.1
20181020175016 51 232 1.0 4.0 0.00 0.00 0.00 88 1023.2
20181020174516 51 243 1.0 4.0 0.00 0.00 0.00 87 1023.2
20181020174016 51 213 0.0 4.0 0.00 0.00 0.00 87 1023.3
20181020173516 51 162 0.0 2.0 0.00 0.00 0.00 86 1023.4
20181020173016 51 156 0.0 3.0 0.00 0.00 0.00 87 1023.3
20181020172516 51 173 0.0 3.0 0.00 0.00 0.00 87 1023.4
20181020172016 51 182 1.0 3.0 0.00 0.00 0.00 86 1023.4
20181020171517 51 157 0.0 3.0 0.00 0.00 0.00 87 1023.4
20181020171016 51 164 0.0 4.0 0.00 0.00 0.00 88 1023.4
20181020170516 51 149 1.0 4.0 0.00 0.00 0.00 89 1023.4
20181020170016 50 151 0.0 2.0 0.00 0.00 0.00 91 1023.5
20181020165517 50 155 0.0 2.0 0.00 0.00 0.00 92 1023.4
20181020165016 49 166 0.0 1.0 0.00 0.00 0.00 94 1023.4
20181020164522 48 166 0.0 1.0 0.00 0.00 0.00 95 1023.4
20181020164016 47 166 0.0 2.0 0.00 0.00 0.00 96 1023.5
20181020163516 46 166 0.0 2.0 0.00 0.00 0.00 96 1023.4
20181020163016 45 172 0.0 2.0 0.00 0.00 0.00 96 1023.5
20181020162516 44 0.0 0.0 0.00 0.00 0.00 96 1023.5
20181020162016 44 0.0 0.0 0.00 0.00 0.00 96 1023.5
20181020161516 44 0.0 0.0 0.00 0.00 0.00 97 1023.5
20181020161016 43 0.0 0.0 0.00 0.00 0.00 97 1023.4
20181020160516 42 0.0 0.0 0.00 0.00 0.00 97 1023.5
20181020160016 41 0.0 0.0 0.00 0.00 0.00 97 1023.6
20181020155516 41 0.0 0.0 0.00 0.00 0.00 97 1023.5
20181020155016 40 0.0 0.0 0.00 0.00 0.00 96 1023.4
20181020154516 39 0.0 0.0 0.00 0.00 0.00 96 1023.4
20181020154016 39 0.0 0.0 0.00 0.00 0.00 96 1023.5
20181020153516 39 0.0 0.0 0.00 0.00 0.00 96 1023.4
20181020153016 38 0.0 0.0 0.00 0.00 0.00 95 1023.4
20181020152515 38 0.0 0.0 0.00 0.00 0.00 95 1023.4
20181020152017 38 0.0 0.0 0.00 0.00 0.00 95 1023.5
20181020151515 38 0.0 0.0 0.00 0.00 0.00 95 1023.5
20181020151016 38 0.0 0.0 0.00 0.00 0.00 95 1023.5
20181020150515 38 0.0 0.0 0.00 0.00 0.00 95 1023.4
20181020150016 38 0.0 0.0 0.00 0.00 0.00 95 1023.4
20181020145516 38 0.0 0.0 0.00 0.00 0.00 95 1023.4
20181020145016 38 0.0 0.0 0.00 0.00 0.00 95 1023.3
20181020144515 38 0.0 1.0 0.00 0.00 0.00 95 1023.3
20181020144015 38 313 0.0 1.0 0.00 0.00 0.00 96 1023.4
20181020143516 38 0.0 0.0 0.00 0.00 0.00 95 1023.4
20181020143015 38 0.0 0.0 0.00 0.00 0.00 95 1023.4
20181020142516 38 0.0 0.0 0.00 0.00 0.00 95 1023.4
20181020142016 38 0.0 0.0 0.00 0.00 0.00 95 1023.6
20181020141516 38 0.0 0.0 0.00 0.00 0.00 95 1023.5
20181020141016 38 0.0 0.0 0.00 0.00 0.00 95 1023.5
20181020140515 38 0.0 0.0 0.00 0.00 0.00 95 1023.6
20181020140015 38 0.0 0.0 0.00 0.00 0.00 95 1023.6
20181020135515 38 0.0 0.0 0.00 0.00 0.00 95 1023.5
20181020135016 38 0.0 0.0 0.00 0.00 0.00 95 1023.6
20181020134515 38 0.0 0.0 0.00 0.00 0.00 95 1023.6
20181020134024 38 0.0 0.0 0.00 0.00 0.00 95 1023.6
20181020133515 38 0.0 0.0 0.00 0.00 0.00 95 1023.7
20181020133016 39 0.0 0.0 0.00 0.00 0.00 95 1023.7
20181020132515 39 0.0 0.0 0.00 0.00 0.00 95 1023.8
20181020132016 39 0.0 0.0 0.00 0.00 0.00 95 1023.8
20181020131516 39 0.0 0.0 0.00 0.00 0.00 95 1023.8
20181020131015 39 0.0 0.0 0.00 0.00 0.00 95 1023.9
20181020130515 39 0.0 0.0 0.00 0.00 0.00 95 1024.0
20181020130015 39 0.0 0.0 0.00 0.00 0.00 94 1024.0
20181020125516 39 0.0 0.0 0.00 0.00 0.00 95 1024.0
20181020125015 39 0.0 0.0 0.00 0.00 0.00 95 1024.1
20181020124516 39 0.0 0.0 0.00 0.00 0.00 95 1024.2
20181020124016 39 0.0 0.0 0.00 0.00 0.00 95 1024.1
20181020123515 39 0.0 0.0 0.00 0.00 0.00 94 1024.1
20181020123015 39 0.0 0.0 0.00 0.00 0.00 94 1024.0
20181020122515 39 0.0 0.0 0.00 0.00 0.00 94 1024.0
20181020122015 40 0.0 0.0 0.00 0.00 0.00 94 1024.0
20181020121515 40 0.0 0.0 0.00 0.00 0.00 94 1023.9
20181020121015 40 0.0 0.0 0.00 0.00 0.00 94 1023.8
20181020120515 40 0.0 0.0 0.00 0.00 0.00 94 1023.9
20181020120015 40 0.0 0.0 0.00 0.00 0.00 94 1023.9
20181020115515 40 0.0 0.0 0.00 0.00 0.00 94 1024.0
20181020115016 40 0.0 0.0 0.00 0.00 0.00 94 1024.0
20181020114515 40 0.0 0.0 0.00 0.00 0.00 94 1024.1
20181020114015 41 0.0 0.0 0.00 0.00 0.00 94 1024.1
20181020113515 41 0.0 0.0 0.00 0.00 0.00 94 1024.1
20181020113015 41 0.0 0.0 0.00 0.00 0.00 94 1024.1
20181020112517 41 0.0 0.0 0.00 0.00 0.00 94 1024.0
20181020112017 41 0.0 0.0 0.00 0.00 0.00 94 1024.0
20181020111517 41 0.0 0.0 0.00 0.00 0.00 94 1024.0
20181020111017 41 0.0 0.0 0.00 0.00 0.00 94 1024.0
20181020110517 41 0.0 0.0 0.00 0.00 0.00 94 1024.0
20181020110017 41 0.0 0.0 0.00 0.00 0.00 94 1023.9
20181020105517 41 0.0 0.0 0.00 0.00 0.00 94 1024.0
20181020105017 41 0.0 0.0 0.00 0.00 0.00 94 1024.1
20181020104517 42 0.0 0.0 0.00 0.00 0.00 94 1024.0
20181020104017 42 0.0 1.0 0.00 0.00 0.00 94 1024.0
20181020103524 41 311 0.0 1.0 0.00 0.00 0.00 93 1023.9
20181020103017 41 311 0.0 1.0 0.00 0.00 0.00 93 1023.9
20181020102517 42 0.0 0.0 0.00 0.00 0.00 93 1023.8
20181020102017 42 0.0 0.0 0.00 0.00 0.00 93 1023.8
20181020101517 42 0.0 0.0 0.00 0.00 0.00 92 1023.7
20181020101017 42 0.0 0.0 0.00 0.00 0.00 92 1023.8
20181020100517 42 0.0 0.0 0.00 0.00 0.00 92 1023.8
20181020100015 42 0.0 0.0 0.00 0.00 0.00 93 1023.8
20181020095517 43 0.0 0.0 0.00 0.00 0.00 93 1024.0
20181020095017 43 0.0 1.0 0.00 0.00 0.00 92 1024.0
20181020094517 43 311 0.0 1.0 0.00 0.00 0.00 92 1024.1
20181020094017 43 0.0 0.0 0.00 0.00 0.00 92 1024.0
20181020093517 43 0.0 0.0 0.00 0.00 0.00 92 1024.0
20181020093017 43 0.0 0.0 0.00 0.00 0.00 91 1024.0
20181020092517 43 0.0 0.0 0.00 0.00 0.00 91 1024.0
20181020092017 44 0.0 0.0 0.00 0.00 0.00 91 1024.0
20181020091517 44 0.0 0.0 0.00 0.00 0.00 91 1024.0
20181020091017 44 0.0 0.0 0.00 0.00 0.00 91 1024.1
20181020090517 44 0.0 0.0 0.00 0.00 0.00 90 1024.0
20181020090017 44 0.0 0.0 0.00 0.00 0.00 90 1023.9
20181020085517 45 0.0 0.0 0.00 0.00 0.00 90 1023.8
20181020085017 45 0.0 0.0 0.00 0.00 0.00 89 1023.9
20181020084517 45 0.0 1.0 0.00 0.00 0.00 89 1023.8
20181020084017 45 311 0.0 1.0 0.00 0.00 0.00 88 1023.9
20181020083517 46 0.0 0.0 0.00 0.00 0.00 88 1023.8
20181020083017 46 0.0 0.0 0.00 0.00 0.00 87 1023.8
20181020082516 47 0.0 0.0 0.00 0.00 0.00 87 1023.7
20181020082017 47 0.0 1.0 0.00 0.00 0.00 86 1023.7
20181020081517 47 318 0.0 2.0 0.00 0.00 0.00 86 1023.7
20181020081016 48 318 1.0 4.0 0.00 0.00 0.00 86 1023.7
20181020080517 48 318 1.0 7.0 0.00 0.00 0.00 86 1023.7
20181020080018 48 323 2.0 7.0 0.00 0.00 0.00 85 1023.7
20181020075516 48 322 1.0 7.0 0.00 0.00 0.00 85 1023.7
20181020075017 49 325 2.0 7.0 0.00 0.00 0.00 85 1023.7
20181020074516 49 326 1.0 7.0 0.00 0.00 0.00 84 1023.7
20181020074016 49 327 1.0 7.0 0.00 0.00 0.00 84 1023.7
20181020073517 49 330 1.0 9.0 0.00 0.00 0.00 83 1023.6
20181020073023 49 322 2.0 9.0 0.00 0.00 0.00 83 1023.5
20181020072516 49 326 3.0 10.0 0.00 0.00 0.00 83 1023.5
20181020072017 49 319 3.0 10.0 0.00 0.00 0.00 83 1023.5
20181020071517 49 321 3.0 9.0 0.00 0.00 0.00 83 1023.4
20181020071017 49 330 3.0 9.0 0.00 0.00 0.00 84 1023.4
20181020070516 49 325 2.0 9.0 0.00 0.00 0.00 84 1023.3
20181020070017 49 320 3.0 9.0 0.00 0.00 0.00 84 1023.3
20181020065516 49 324 2.0 7.0 0.00 0.00 0.00 84 1023.3
20181020065016 49 327 2.0 6.0 0.00 0.00 0.00 84 1023.2
20181020064520 49 314 1.0 9.0 0.00 0.00 0.00 85 1023.2
20181020064016 49 326 2.0 9.0 0.00 0.00 0.00 85 1023.2
20181020063516 49 323 2.0 7.0 0.00 0.00 0.00 85 1023.2
20181020063016 49 323 2.0 7.0 0.00 0.00 0.00 85 1023.2
20181020062516 49 322 2.0 8.0 0.00 0.00 0.00 85 1023.2
20181020062016 49 324 2.0 8.0 0.00 0.00 0.00 85 1023.3
20181020061516 49 328 2.0 9.0 0.00 0.00 0.00 85 1023.2
20181020061016 49 303 2.0 9.0 0.00 0.00 0.00 85 1023.2
20181020060516 49 328 1.0 7.0 0.00 0.00 0.00 85 1023.1
20181020060016 49 335 1.0 6.0 0.00 0.00 0.00 85 1023.1
20181020055516 49 328 1.0 4.0 0.00 0.00 0.00 85 1023.1
20181020055015 49 294 1.0 3.0 0.00 0.00 0.00 85 1023.1
20181020054516 49 269 0.0 4.0 0.00 0.00 0.00 85 1023.2
20181020054016 49 297 1.0 4.0 0.00 0.00 0.00 85 1023.1
20181020053516 49 324 0.0 6.0 0.00 0.00 0.00 85 1023.2
20181020053016 49 322 1.0 7.0 0.00 0.00 0.00 85 1023.1
20181020052516 50 313 1.0 9.0 0.00 0.00 0.00 85 1023.1
20181020052016 49 322 1.0 9.0 0.00 0.00 0.00 85 1023.1
20181020051515 49 314 1.0 6.0 0.00 0.00 0.00 85 1023.1
20181020051016 49 331 1.0 6.0 0.00 0.00 0.00 85 1023.1
20181020050516 50 295 1.0 5.0 0.00 0.00 0.00 85 1023.1
20181020050016 50 288 2.0 6.0 0.00 0.00 0.00 85 1023.0
20181020045515 50 328 1.0 6.0 0.00 0.00 0.00 85 1023.0
20181020045015 50 270 0.0 5.0 0.00 0.00 0.00 85 1023.0
20181020044515 50 312 1.0 6.0 0.00 0.00 0.00 85 1023.0
20181020044016 50 357 0.0 6.0 0.00 0.00 0.00 85 1022.9
20181020043515 50 318 0.0 7.0 0.00 0.00 0.00 84 1022.9
20181020043015 50 320 2.0 7.0 0.00 0.00 0.00 84 1022.9
20181020042522 50 323 2.0 7.0 0.00 0.00 0.00 84 1022.9
20181020042015 50 314 2.0 10.0 0.00 0.00 0.00 84 1022.9
20181020041516 51 324 2.0 11.0 0.00 0.00 0.00 84 1022.9
20181020041016 51 310 1.0 11.0 0.00 0.00 0.00 83 1022.9
20181020040515 51 328 1.0 10.0 0.00 0.00 0.00 83 1022.9
20181020040016 51 330 0.0 5.0 0.00 0.00 0.00 83 1022.9
20181020035516 51 346 1.0 7.0 0.00 0.00 0.00 83 1023.0
20181020035016 51 344 1.0 7.0 0.00 0.00 0.00 83 1022.9
20181020034515 51 346 0.0 4.0 0.00 0.00 0.00 83 1023.0
20181020034015 51 341 0.0 5.0 0.00 0.00 0.00 82 1023.0
20181020033515 51 308 1.0 6.0 0.00 0.00 0.00 83 1023.0
20181020033015 51 314 1.0 6.0 0.00 0.00 0.00 83 1023.0
20181020032515 51 328 0.0 3.0 0.00 0.00 0.00 84 1023.0
20181020032016 51 296 0.0 2.0 0.00 0.00 0.00 84 1022.9
20181020031516 51 291 0.0 2.0 0.00 0.00 0.00 84 1022.9
20181020031015 52 309 0.0 2.0 0.00 0.00 0.00 83 1023.0
20181020030515 52 333 0.0 2.0 0.00 0.00 0.00 84 1022.9
20181020030015 52 329 0.0 3.0 0.00 0.00 0.00 84 1022.9
20181020025515 52 324 0.0 4.0 0.00 0.00 0.00 84 1023.0
20181020025015 52 337 0.0 4.0 0.00 0.00 0.00 84 1023.0
20181020024515 52 319 0.0 4.0 0.00 0.00 0.00 84 1023.0
20181020024015 52 316 0.0 3.0 0.00 0.00 0.00 84 1023.0
20181020023515 52 308 0.0 2.0 0.00 0.00 0.00 83 1023.1
20181020023015 52 265 0.0 4.0 0.00 0.00 0.00 83 1023.1
20181020022515 53 309 1.0 4.0 0.00 0.00 0.00 83 1023.2
20181020022015 53 287 1.0 5.0 0.00 0.00 0.00 82 1023.2
20181020021515 53 286 1.0 6.0 0.00 0.00 0.00 82 1023.2
20181020021017 53 287 1.0 6.0 0.00 0.00 0.00 81 1023.2
20181020020517 53 305 1.0 5.0 0.00 0.00 0.00 81 1023.3
20181020020017 54 293 1.0 5.0 0.00 0.00 0.00 80 1023.3
20181020015517 54 312 1.0 6.0 0.00 0.00 0.00 80 1023.2
20181020015017 54 279 1.0 7.0 0.00 0.00 0.00 80 1023.2
20181020014517 54 315 2.0 7.0 0.00 0.00 0.00 80 1023.2
20181020014017 54 319 3.0 7.0 0.00 0.00 0.00 80 1023.2
20181020013517 54 288 1.0 8.0 0.00 0.00 0.00 80 1023.2
20181020013017 55 306 2.0 8.0 0.00 0.00 0.00 79 1023.2
20181020012517 55 261 1.0 5.0 0.00 0.00 0.00 79 1023.2
20181020012024 55 273 1.0 7.0 0.00 0.00 0.00 78 1023.2
20181020011517 56 283 2.0 7.0 0.00 0.00 0.00 78 1023.2